User: anonymous   Login
Location: Newark
(47.5500°N, 8.6167°E)
Time: 01:50:24
(UTC+00:00)
Language:

BEESAT 3 - Orbit

View from above orbital plane
View from above orbital plane
View from above satellite
View from above satellite

Ground track
Ground track

The orbit data is extracted from the following two-line orbital elements,

1 39134U 13015E   20093.63036740  .00001387  00000-0  70837-4 0  9991
2 39134  64.8626 163.8491 0036899 255.9571 103.7454 15.20875743384523
Epoch (UTC): 02 April 2020 15:07:43
Eccentricity: 0.0036899
inclination: 64.8626°
perigee height: 478 km
apogee height: 528 km
right ascension of ascending node: 163.8491°
argument of perigee: 255.9571°
revolutions per day: 15.20875743
mean anomaly at epoch: 103.7454°
orbit number at epoch: 38452

The dashed part of the orbit path shows where the satellite is in the earth's shadow,  

DLR